Retour au catalogue

STARLINK-32454

ActifCommunicationsVLEO
NORAD 62142·PAYLOAD·🇺🇸 United States

Lancé Nov 30, 2024 depuis Cape Canaveral Space Force Station

Loading…

Prochains Passages (prochaines 24 heures)

TLE

FraisSource: CelesTrak SupGP

Époque: Sep 15, 2026, 03:00 UTC

1 62142C 24224D   26258.12548611 -.00014563  00000+0 -52753-3 0  2583
2 62142  43.0001 175.8030 0001473 273.6461 123.7277 15.27580675    19

Suivez STARLINK-32454 en temps réel avec AllMySat

Download on the App Store